.
WxDataArchive / Data Records for 2013-02-12
2013-02-11 February 2013 2013-02-13

Data Records for Tuesday, 12 February 2013

Time	Temp	Chill	HIndex	Humid	Dewpt	 Wind 	HiWind	WindDir	Rain 	Barom 
-----	----	-----	------	-----	-----	------	------	-------	-----	----- 
00:00	31.2	31.2	31.2	65	20.8	3	9	270	0.00	29.988 
00:05	31.2	31.2	31.2	65	20.8	3	9	248	0.00	29.988 
00:10	31.0	31.0	31.0	65	20.6	3	6	248	0.00	29.988 
00:15	31.0	31.0	31.0	65	20.6	3	7	270	0.00	29.991 
00:20	31.0	31.0	31.0	65	20.6	3	6	270	0.00	29.991 
00:25	31.0	31.0	31.0	65	20.6	3	6	248	0.00	29.991 
00:30	31.0	31.0	31.0	65	20.6	2	5	248	0.00	29.995 
00:35	31.0	31.0	31.0	65	20.6	3	6	270	0.00	29.995 
00:40	31.0	31.0	31.0	65	20.6	3	6	270	0.00	29.995 
00:45	31.0	31.0	31.0	65	20.6	3	6	270	0.00	30.002 
00:50	31.0	31.0	31.0	64	20.3	3	7	270	0.00	30.002 
00:55	31.0	31.0	31.0	64	20.3	3	7	270	0.00	30.002 
01:00	31.0	31.0	31.0	64	20.3	3	5	270	0.00	30.008 
01:05	31.0	26.9	31.0	63	19.9	4	10	248	0.00	30.008 
01:10	31.0	31.0	31.0	63	19.9	3	9	270	0.00	30.008 
01:15	31.0	31.0	31.0	63	19.9	2	7	270	0.00	30.007 
01:20	30.9	30.9	30.9	64	20.2	2	5	270	0.00	30.007 
01:25	30.9	30.9	30.9	64	20.2	3	5	270	0.00	30.007 
01:30	30.9	30.9	30.9	64	20.2	3	6	270	0.00	30.007 
01:35	30.9	30.9	30.9	65	20.5	2	4	270	0.00	30.007 
01:40	30.9	30.9	30.9	65	20.5	1	4	270	0.00	30.007 
01:45	30.7	30.7	30.7	65	20.3	1	4	270	0.00	30.014 
01:50	30.7	30.7	30.7	66	20.7	1	3	270	0.00	30.014 
01:55	30.7	30.7	30.7	67	21.1	2	4	270	0.00	30.014 
02:00	30.7	30.7	30.7	67	21.1	1	4	225	0.00	30.016 
02:05	30.7	30.7	30.7	67	21.1	1	3	248	0.00	30.016 
02:10	30.7	30.7	30.7	67	21.1	2	6	248	0.00	30.016 
02:15	30.7	30.7	30.7	67	21.1	2	4	270	0.00	30.018 
02:20	30.7	30.7	30.7	67	21.1	2	4	248	0.00	30.018 
02:25	30.7	30.7	30.7	66	20.7	2	6	248	0.00	30.018 
02:30	30.7	30.7	30.7	66	20.7	2	5	248	0.00	30.021 
02:35	30.7	30.7	30.7	66	20.7	2	5	248	0.00	30.021 
02:40	30.7	30.7	30.7	66	20.7	2	5	292	0.00	30.021 
02:45	30.7	30.7	30.7	67	21.1	2	3	315	0.00	30.028 
02:50	30.7	30.7	30.7	67	21.1	2	5	248	0.00	30.028 
02:55	30.7	30.7	30.7	67	21.1	1	4	225	0.00	30.028 
03:00	30.7	30.7	30.7	67	21.1	2	3	248	0.00	30.037 
03:05	30.7	30.7	30.7	67	21.1	2	4	248	0.00	30.037 
03:10	30.7	30.7	30.7	67	21.1	2	3	248	0.00	30.037 
03:15	30.7	30.7	30.7	67	21.1	2	5	248	0.00	30.039 
03:20	30.7	30.7	30.7	68	21.4	1	3	248	0.00	30.039 
03:25	30.6	30.6	30.6	68	21.3	1	3	248	0.00	30.039 
03:30	30.6	30.6	30.6	68	21.3	1	4	248	0.00	30.039 
03:35	30.6	30.6	30.6	67	21.0	2	5	248	0.00	30.039 
03:40	30.6	30.6	30.6	67	21.0	2	4	248	0.00	30.039 
03:45	30.6	30.6	30.6	66	20.6	2	7	292	0.00	30.042 
03:50	30.6	30.6	30.6	66	20.6	2	4	292	0.00	30.042 
03:55	30.4	30.4	30.4	65	20.1	2	6	248	0.00	30.042 
04:00	30.4	30.4	30.4	65	20.1	3	6	270	0.00	30.049 
04:05	30.4	30.4	30.4	65	20.1	2	5	248	0.00	30.049 
04:10	30.3	30.3	30.3	65	20.0	2	5	292	0.00	30.049 
04:15	30.3	30.3	30.3	65	20.0	2	4	270	0.00	30.054 
04:20	30.3	30.3	30.3	65	20.0	1	2	292	0.00	30.054 
04:25	30.3	30.3	30.3	65	20.0	1	3	292	0.00	30.054 
04:30	30.1	30.1	30.1	66	20.1	2	5	292	0.00	30.054 
04:35	30.1	30.1	30.1	66	20.1	1	3	292	0.00	30.054 
04:40	30.1	30.1	30.1	67	20.5	0	2	315	0.00	30.054 
04:45	30.1	30.1	30.1	67	20.5	1	3	270	0.00	30.057 
04:50	30.1	30.1	30.1	67	20.5	1	3	270	0.00	30.057 
04:55	30.1	30.1	30.1	68	20.8	1	4	270	0.00	30.057 
05:00	30.1	30.1	30.1	69	21.2	2	4	248	0.00	30.064 
05:05	30.1	30.1	30.1	69	21.2	1	3	248	0.00	30.064 
05:10	30.1	30.1	30.1	70	21.5	1	2	248	0.00	30.064 
05:15	30.1	30.1	30.1	69	21.2	2	5	270	0.00	30.063 
05:20	30.1	30.1	30.1	69	21.2	1	3	248	0.00	30.063 
05:25	30.0	30.0	30.0	69	21.1	1	3	248	0.00	30.063 
05:30	30.0	30.0	30.0	68	20.7	3	7	248	0.00	30.066 
05:35	29.8	29.8	29.8	68	20.5	3	6	292	0.00	30.066 
05:40	29.8	29.8	29.8	68	20.5	2	4	338	0.00	30.066 
05:45	29.8	29.8	29.8	68	20.5	1	3	248	0.00	30.067 
05:50	29.8	29.8	29.8	68	20.5	1	3	248	0.00	30.067 
05:55	29.7	29.7	29.7	69	20.8	2	5	248	0.00	30.067 
06:00	29.5	29.5	29.5	69	20.6	2	4	248	0.00	30.076 
06:05	29.5	29.5	29.5	69	20.6	2	4	248	0.00	30.076 
06:10	29.4	29.4	29.4	69	20.5	2	5	248	0.00	30.076 
06:15	29.4	29.4	29.4	69	20.5	2	5	248	0.00	30.085 
06:20	29.4	29.4	29.4	69	20.5	2	6	248	0.00	30.085 
06:25	29.3	29.3	29.3	69	20.4	3	9	248	0.00	30.085 
06:30	29.3	29.3	29.3	69	20.4	2	4	248	0.00	30.084 
06:35	29.3	29.3	29.3	69	20.4	3	5	270	0.00	30.084 
06:40	29.1	29.1	29.1	69	20.2	2	4	270	0.00	30.084 
06:45	29.1	29.1	29.1	69	20.2	3	6	270	0.00	30.087 
06:50	29.0	29.0	29.0	69	20.1	2	4	248	0.00	30.087 
06:55	29.0	29.0	29.0	69	20.1	3	7	292	0.00	30.087 
07:00	29.0	29.0	29.0	70	20.5	1	3	292	0.00	30.088 
07:05	29.0	29.0	29.0	70	20.5	2	6	292	0.00	30.088 
07:10	29.0	29.0	29.0	70	20.5	2	5	248	0.00	30.088 
07:15	29.0	29.0	29.0	70	20.5	2	5	338	0.00	30.088 
07:20	28.8	28.8	28.8	70	20.3	2	4	248	0.00	30.088 
07:25	28.8	28.8	28.8	69	19.9	2	4	248	0.00	30.088 
07:30	28.8	28.8	28.8	70	20.3	2	4	248	0.00	30.089 
07:35	28.8	28.8	28.8	69	19.9	2	4	270	0.00	30.089 
07:40	28.8	28.8	28.8	70	20.3	2	5	248	0.00	30.089 
07:45	28.8	28.8	28.8	69	19.9	2	5	248	0.00	30.094 
07:50	28.8	28.8	28.8	69	19.9	2	6	292	0.00	30.094 
07:55	28.8	28.8	28.8	69	19.9	2	5	248	0.00	30.094 
08:00	28.8	28.8	28.8	70	20.3	1	4	292	0.00	30.093 
08:05	28.8	28.8	28.8	70	20.3	1	3	248	0.00	30.093 
08:10	28.8	28.8	28.8	70	20.3	1	3	248	0.00	30.093 
08:15	28.8	28.8	28.8	70	20.3	0	4	338	0.00	30.104 
08:20	28.8	28.8	28.8	70	20.3	1	3	338	0.00	30.104 
08:25	29.0	29.0	29.0	70	20.5	0	2	270	0.00	30.104 
08:30	29.0	29.0	29.0	71	20.8	0	2	270	0.00	30.101 
08:35	29.1	29.1	29.1	71	20.9	0	1	270	0.00	30.101 
08:40	29.1	29.1	29.1	71	20.9	0	1	270	0.00	30.101 
08:45	29.3	29.3	29.3	71	21.1	0	2	270	0.00	30.104 
08:50	29.4	29.4	29.4	71	21.2	0	1	270	0.00	30.104 
08:55	29.4	29.4	29.4	71	21.2	0	1	270	0.00	30.104 
09:00	29.5	29.5	29.5	71	21.3	0	2	270	0.00	30.104 
09:05	29.7	29.7	29.7	71	21.5	0	1	270	0.00	30.104 
09:10	29.8	29.8	29.8	71	21.6	0	1	270	0.00	30.104 
09:15	30.0	30.0	30.0	71	21.8	0	2	270	0.00	30.105 
09:20	30.1	30.1	30.1	71	21.9	1	4	248	0.00	30.105 
09:25	30.1	30.1	30.1	71	21.9	1	3	248	0.00	30.105 
09:30	30.3	30.3	30.3	71	22.0	0	3	248	0.00	30.106 
09:35	30.3	30.3	30.3	71	22.0	1	4	248	0.00	30.106 
09:40	30.3	30.3	30.3	71	22.0	1	5	248	0.00	30.106 
09:45	30.0	30.0	30.0	70	21.4	2	6	248	0.00	30.106 
09:50	29.8	29.8	29.8	70	21.2	2	5	248	0.00	30.106 
09:55	29.7	29.7	29.7	70	21.1	1	3	248	0.00	30.106 
10:00	29.8	29.8	29.8	70	21.2	1	2	248	0.00	30.108 
10:05	29.8	29.8	29.8	70	21.2	1	3	248	0.00	30.108 
10:10	29.8	29.8	29.8	70	21.2	2	5	248	0.00	30.108 
10:15	29.8	29.8	29.8	69	20.9	2	6	248	0.00	30.115 
10:20	30.0	30.0	30.0	69	21.1	2	5	248	0.00	30.115 
10:25	30.0	30.0	30.0	69	21.1	2	5	270	0.00	30.115 
10:30	30.0	30.0	30.0	69	21.1	1	3	248	0.00	30.109 
10:35	30.1	30.1	30.1	68	20.8	1	4	248	0.00	30.109 
10:40	30.3	30.3	30.3	68	21.0	1	5	248	0.00	30.109 
10:45	30.3	30.3	30.3	68	21.0	1	3	248	0.00	30.104 
10:50	30.4	30.4	30.4	67	20.8	1	5	248	0.00	30.104 
10:55	30.6	30.6	30.6	67	21.0	1	4	248	0.00	30.104 
11:00	31.0	31.0	31.0	66	21.0	2	4	248	0.00	30.103 
11:05	31.0	31.0	31.0	65	20.6	1	3	248	0.00	30.103 
11:10	30.9	30.9	30.9	66	20.9	1	3	248	0.00	30.103 
11:15	31.3	31.3	31.3	66	21.3	1	3	248	0.00	30.101 
11:20	31.9	31.9	31.9	66	21.9	1	4	248	0.00	30.101 
11:25	32.4	32.4	32.4	64	21.6	1	3	248	0.00	30.101 
11:30	32.9	32.9	32.9	64	22.1	1	4	248	0.00	30.103 
11:35	33.2	33.2	33.2	63	22.0	2	4	248	0.00	30.103 
11:40	33.2	33.2	33.2	62	21.6	1	3	248	0.00	30.103 
11:45	32.8	32.8	32.8	63	21.6	1	3	248	0.00	30.102 
11:50	33.1	33.1	33.1	63	21.9	0	2	248	0.00	30.102 
11:55	33.4	33.4	33.4	63	22.2	1	3	248	0.00	30.102 
12:00	33.5	33.5	33.5	63	22.3	1	3	248	0.00	30.086 
12:05	33.8	33.8	33.8	64	22.9	1	4	270	0.00	30.086 
12:10	34.3	34.3	34.3	64	23.4	1	2	248	0.00	30.086 
12:15	34.3	34.3	34.3	62	22.7	2	4	248	0.00	30.084 
12:20	34.4	34.4	34.4	62	22.7	1	4	248	0.00	30.084 
12:25	34.6	34.6	34.6	62	22.9	1	3	270	0.00	30.084 
12:30	34.6	34.6	34.6	61	22.6	1	5	248	0.00	30.066 
12:35	34.9	34.9	34.9	62	23.2	1	3	248	0.00	30.066 
12:40	34.9	34.9	34.9	61	22.8	2	4	248	0.00	30.066 
12:45	34.7	34.7	34.7	61	22.6	1	5	315	0.00	30.052 
12:50	35.0	35.0	35.0	61	22.9	1	3	270	0.00	30.052 
12:55	35.2	35.2	35.2	61	23.1	2	4	270	0.00	30.052 
13:00	35.6	35.6	35.6	60	23.1	1	3	270	0.00	30.037 
13:05	35.8	35.8	35.8	59	22.9	2	4	248	0.00	30.037 
13:10	35.6	35.6	35.6	59	22.7	1	3	248	0.00	30.037 
13:15	35.9	35.9	35.9	61	23.8	1	4	248	0.00	30.023 
13:20	36.0	36.0	36.0	59	23.1	1	4	248	0.00	30.023 
13:25	36.2	36.2	36.2	61	24.1	1	4	270	0.00	30.023 
13:30	36.2	36.2	36.2	59	23.3	1	3	248	0.00	30.020 
13:35	36.3	36.3	36.3	59	23.4	1	5	248	0.00	30.020 
13:40	36.3	36.3	36.3	59	23.4	1	5	248	0.00	30.020 
13:45	36.2	36.2	36.2	59	23.3	1	3	248	0.00	30.005 
13:50	36.5	36.5	36.5	59	23.6	2	5	248	0.00	30.005 
13:55	36.5	36.5	36.5	59	23.6	1	3	248	0.00	30.005 
14:00	36.8	36.8	36.8	59	23.8	1	3	248	0.00	30.005 
14:05	36.9	36.9	36.9	58	23.5	1	4	248	0.00	30.005 
14:10	37.3	37.3	37.3	59	24.3	1	5	315	0.00	30.005 
14:15	37.5	37.5	37.5	58	24.1	0	2	248	0.00	30.003 
14:20	37.5	37.5	37.5	58	24.1	1	4	248	0.00	30.003 
14:25	37.9	37.9	37.9	59	24.9	1	4	315	0.00	30.003 
14:30	38.0	38.0	38.0	57	24.1	2	4	248	0.00	30.008 
14:35	37.8	37.8	37.8	57	24.0	2	4	248	0.00	30.008 
14:40	37.5	37.5	37.5	58	24.1	2	4	270	0.00	30.008 
14:45	37.5	37.5	37.5	58	24.1	1	3	248	0.00	30.005 
14:50	37.9	37.9	37.9	58	24.5	1	3	248	0.00	30.005 
14:55	38.0	38.0	38.0	60	25.4	1	3	248	0.00	30.005 
15:00	38.0	38.0	38.0	58	24.6	1	4	248	0.00	30.010 
15:05	37.9	37.9	37.9	59	24.9	1	4	248	0.00	30.010 
15:10	38.0	38.0	38.0	59	25.0	2	4	270	0.00	30.010 
15:15	38.2	38.2	38.2	60	25.6	2	5	248	0.00	30.013 
15:20	38.3	38.3	38.3	59	25.2	2	4	338	0.00	30.013 
15:25	38.5	38.5	38.5	58	25.0	2	4	248	0.00	30.013 
15:30	38.6	38.6	38.6	58	25.1	2	4	248	0.00	30.012 
15:35	38.6	38.6	38.6	57	24.7	2	7	248	0.00	30.012 
15:40	38.6	38.6	38.6	58	25.1	2	6	248	0.00	30.012 
15:45	38.5	38.5	38.5	58	25.0	3	9	248	0.00	30.015 
15:50	38.3	38.3	38.3	58	24.8	1	4	270	0.00	30.015 
15:55	37.9	37.9	37.9	59	24.9	2	4	270	0.00	30.015 
16:00	37.8	37.8	37.8	59	24.8	2	5	248	0.00	30.018 
16:05	37.6	37.6	37.6	60	25.0	2	5	270	0.00	30.018 
16:10	37.5	37.5	37.5	60	24.9	2	7	248	0.00	30.018 
16:15	37.5	37.5	37.5	61	25.3	2	4	248	0.00	30.018 
16:20	37.2	37.2	37.2	60	24.6	2	5	248	0.00	30.018 
16:25	37.0	37.0	37.0	62	25.2	2	5	248	0.00	30.018 
16:30	37.0	37.0	37.0	62	25.2	2	6	248	0.00	30.009 
16:35	36.9	36.9	36.9	62	25.1	1	4	248	0.00	30.009 
16:40	36.5	36.5	36.5	63	25.1	1	3	248	0.00	30.009 
16:45	36.3	36.3	36.3	64	25.3	1	4	248	0.00	30.006 
16:50	36.0	36.0	36.0	63	24.6	2	6	248	0.00	30.006 
16:55	35.9	35.9	35.9	64	24.9	1	3	248	0.00	30.006 
17:00	35.8	35.8	35.8	65	25.2	2	4	248	0.00	30.007 
17:05	35.8	35.8	35.8	65	25.2	1	3	270	0.00	30.007 
17:10	35.6	35.6	35.6	65	25.0	2	5	248	0.00	30.007 
17:15	35.5	35.5	35.5	65	24.9	1	4	248	0.00	30.003 
17:20	35.3	35.3	35.3	66	25.1	2	3	248	0.00	30.003 
17:25	35.0	35.0	35.0	66	24.8	2	5	248	0.00	30.003 
17:30	34.9	34.9	34.9	67	25.1	1	4	248	0.00	30.007 
17:35	34.6	34.6	34.6	68	25.1	2	5	248	0.00	30.007 
17:40	34.4	34.4	34.4	68	24.9	1	3	248	0.00	30.007 
17:45	34.1	34.1	34.1	68	24.7	3	5	270	0.00	30.007 
17:50	33.8	33.8	33.8	69	24.7	1	4	270	0.00	30.007 
17:55	33.7	33.7	33.7	69	24.6	1	4	248	0.00	30.007 
18:00	33.4	33.4	33.4	70	24.7	2	6	248	0.00	30.000 
18:05	33.1	33.1	33.1	70	24.4	2	4	248	0.00	30.000 
18:10	32.7	32.7	32.7	71	24.4	1	5	248	0.00	30.000 
18:15	32.4	32.4	32.4	72	24.4	1	3	248	0.00	29.998 
18:20	32.1	32.1	32.1	72	24.1	1	3	248	0.00	29.998 
18:25	31.8	31.8	31.8	72	23.8	1	3	248	0.00	29.998 
18:30	31.8	31.8	31.8	73	24.1	1	3	248	0.00	29.997 
18:35	31.6	31.6	31.6	73	24.0	1	3	270	0.00	29.997 
18:40	31.5	31.5	31.5	73	23.9	1	2	270	0.00	29.997 
18:45	31.3	31.3	31.3	73	23.7	2	4	248	0.00	29.998 
18:50	31.0	31.0	31.0	73	23.4	2	6	248	0.00	29.998 
18:55	31.0	31.0	31.0	73	23.4	2	4	292	0.00	29.998 
19:00	30.9	30.9	30.9	73	23.3	1	3	248	0.00	30.007 
19:05	30.9	30.9	30.9	73	23.3	2	6	225	0.00	30.007 
19:10	30.9	30.9	30.9	74	23.6	1	4	248	0.00	30.007 
19:15	30.9	30.9	30.9	74	23.6	0	3	248	0.00	30.006 
19:20	30.9	30.9	30.9	74	23.6	1	3	248	0.00	30.006 
19:25	30.9	30.9	30.9	74	23.6	0	2	248	0.00	30.006 
19:30	30.9	30.9	30.9	74	23.6	1	3	225	0.00	29.999 
19:35	30.7	30.7	30.7	73	23.1	2	4	248	0.00	29.999 
19:40	30.7	30.7	30.7	73	23.1	1	3	248	0.00	29.999 
19:45	30.6	30.6	30.6	73	23.0	1	3	248	0.00	29.996 
19:50	30.6	30.6	30.6	74	23.3	0	3	248	0.00	29.996 
19:55	30.6	30.6	30.6	74	23.3	1	4	248	0.00	29.996 
20:00	30.6	30.6	30.6	74	23.3	1	2	248	0.00	29.994 
20:05	30.6	30.6	30.6	74	23.3	1	3	248	0.00	29.994 
20:10	30.6	30.6	30.6	74	23.3	1	2	248	0.00	29.994 
20:15	30.6	30.6	30.6	75	23.6	0	2	248	0.00	29.983 
20:20	30.6	30.6	30.6	74	23.3	1	3	248	0.00	29.983 
20:25	30.6	30.6	30.6	75	23.6	0	2	248	0.00	29.983 
20:30	30.6	30.6	30.6	75	23.6	0	2	248	0.00	29.986 
20:35	30.6	30.6	30.6	75	23.6	0	2	248	0.00	29.986 
20:40	30.6	30.6	30.6	75	23.6	1	4	292	0.00	29.986 
20:45	30.4	30.4	30.4	75	23.4	1	3	270	0.00	29.986 
20:50	30.1	30.1	30.1	75	23.2	2	4	315	0.00	29.986 
20:55	29.8	29.8	29.8	75	22.9	1	3	270	0.00	29.986 
21:00	29.5	29.5	29.5	75	22.6	1	3	315	0.00	29.988 
21:05	29.3	29.3	29.3	74	22.1	1	4	338	0.00	29.988 
21:10	29.1	29.1	29.1	74	21.9	1	3	248	0.00	29.988 
21:15	29.0	29.0	29.0	75	22.1	1	3	248	0.00	29.984 
21:20	29.0	29.0	29.0	75	22.1	1	3	248	0.00	29.984 
21:25	29.0	29.0	29.0	75	22.1	1	2	270	0.00	29.984 
21:30	29.0	29.0	29.0	75	22.1	0	3	292	0.00	29.979 
21:35	29.0	29.0	29.0	75	22.1	0	1	292	0.00	29.979 
21:40	29.1	29.1	29.1	75	22.2	0	1	292	0.00	29.979 
21:45	29.1	29.1	29.1	75	22.2	0	2	292	0.00	29.979 
21:50	29.3	29.3	29.3	75	22.4	0	1	292	0.00	29.979 
21:55	29.3	29.3	29.3	75	22.4	1	2	292	0.00	29.979 
22:00	29.3	29.3	29.3	75	22.4	0	1	292	0.00	29.969 
22:05	29.4	29.4	29.4	75	22.5	0	2	292	0.00	29.969 
22:10	29.4	29.4	29.4	75	22.5	0	2	292	0.00	29.969 
22:15	29.4	29.4	29.4	75	22.5	0	4	270	0.00	29.967 
22:20	29.4	29.4	29.4	74	22.2	1	3	270	0.00	29.967 
22:25	29.3	29.3	29.3	74	22.1	1	3	315	0.00	29.967 
22:30	29.3	29.3	29.3	74	22.1	0	3	270	0.00	29.966 
22:35	29.3	29.3	29.3	74	22.1	0	3	338	0.00	29.966 
22:40	29.1	29.1	29.1	74	21.9	1	3	338	0.00	29.966 
22:45	29.1	29.1	29.1	74	21.9	1	3	338	0.00	29.968 
22:50	29.1	29.1	29.1	74	21.9	0	2	315	0.00	29.968 
22:55	29.1	29.1	29.1	74	21.9	1	3	338	0.00	29.968 
23:00	29.1	29.1	29.1	73	21.5	1	3	338	0.00	29.966 
23:05	29.0	29.0	29.0	73	21.4	1	3	338	0.00	29.966 
23:10	29.0	29.0	29.0	73	21.4	0	2	338	0.00	29.966 
23:15	29.0	29.0	29.0	73	21.4	0	1	338	0.00	29.961 
23:20	29.0	29.0	29.0	73	21.4	0	2	270	0.00	29.961 
23:25	29.0	29.0	29.0	73	21.4	0	2	270	0.00	29.961 
23:30	29.0	29.0	29.0	74	21.8	0	1	270	0.00	29.954 
23:35	29.0	29.0	29.0	74	21.8	0	1	270	0.00	29.954 
23:40	29.0	29.0	29.0	74	21.8	0	2	270	0.00	29.954 
23:45	29.0	29.0	29.0	74	21.8	0	2	270	0.00	29.950 
23:50	29.0	29.0	29.0	74	21.8	0	1	270	0.00	29.950 
23:55	28.8	28.8	28.8	74	21.6	0	1	270	0.00	29.950 

CoCoRaHS
IN-AL-39
A2 Web Hosting
Creative Commons License
GoDaddy
search engine by freefind advanced

loaded 2018-11-15 15:37:35 • last modified 2010-11-18 10:43:29
Privacy PolicyDisclaimer
• wx.awcolley.com is powered by PmWiki v.2002016 •
• all content (unless otherwise noted) © 2018 A W Colley